Amarillo, TX

5:24 AM CST on December 10, 2019 (GMT -0600)
Amarillo International

Weather History for KAMA - June, 2019

Change the Weather History Date:

Saturday, June 1, 2019

  Actual Average Record
Temperature  
Mean Temperature 72 °F 70 °F  
Max Temperature 86 °F 84 °F 107 °F (2018)
Min Temperature 58 °F 57 °F 40 °F (1919)
Degree Days  
Heating Degree Days 0 1  
Month to date heating degree days 0 1  
Since 1 June heating degree days 0 1  
Since 1 July heating degree days 4102 4172  
Cooling Degree Days 7 6  
Month to date cooling degree days 7 6  
Year to date cooling degree days 69 131  
Since 1 June cooling degree days 7 6  
Growing Degree Days 22 (Base 50)    
Moisture  
Dew Point 61 °F    
Average Humidity 67    
Maximum Humidity 93    
Minimum Humidity 40    
Precipitation  
Precipitation 1.22 in 0.11 in 2.36 in (1922)
Month to date precipitation 1.22 0.11  
Year to date precipitation 9.00 6.47  
Snow  
Snow 0.00 in 0.00 in T in (2009)
Month to date snowfall 0.0 0.0  
Since 1 June snowfall 0.0 0.0  
Since 1 July snowfall 8.1 17.8  
Snow Depth 0.00 in    
Sea Level Pressure  
Sea Level Pressure 29.93 in    
Wind  
Wind Speed 14 mph (SSE)    
Max Wind Speed 38 mph    
Max Gust Speed 49 mph    
Visibility 8 miles    
Events Rain , Thunderstorm    
T = Trace of Precipitation, MM = Missing Value Source: NWS Daily Summary

Daily Weather History Graph

Daily Weather History Graph

Search for Another Location

Airport or City:

Astronomy

Jun. 01, 2019 Rise Set
Actual Time 6:33 AM CDT 8:56 PM CDT
Civil Twilight 6:04 AM CDT 9:25 PM CDT
Nautical Twilight 5:28 AM CDT 10:01 PM CDT
Astronomical Twilight 4:48 AM CDT 10:41 PM CDT
Moon 5:32 AM CDT (6/1) 7:16 PM CDT (6/1)
Length of Visible Light 15h 21m
Length of Day
14h 22m
Waning Crescent, 4% of the Moon is Illuminated
Jun 1
Waning Crescent
Jun 3
New
Jun 10
First Quarter
Jun 17
Full
Jun 25
Last Quarter

Hourly Weather History & Observations

Time (CDT) Temp. Heat Index Dew Point Humidity Pressure Visibility Wind Dir Wind Speed Gust Speed Precip Events Conditions
12:53 AM 68.0 °F - 60.1 °F 76% 29.90 in 10.0 mi South 15.0 mph - N/A   Clear
1:53 AM 66.0 °F - 61.0 °F 84% 29.89 in 10.0 mi South 15.0 mph - N/A   Clear
2:53 AM 64.9 °F - 61.0 °F 87% 29.89 in 10.0 mi South 10.4 mph - N/A   Clear
3:53 AM 64.0 °F - 62.1 °F 93% 29.88 in 9.0 mi South 12.7 mph - N/A   Clear
4:53 AM 64.0 °F - 62.1 °F 93% 29.88 in 8.0 mi South 12.7 mph - N/A   Clear
5:53 AM 64.0 °F - 62.1 °F 93% 29.88 in 7.0 mi South 11.5 mph - N/A   Clear
6:53 AM 64.0 °F - 61.0 °F 90% 29.91 in 5.0 mi South 3.5 mph - N/A   Clear
7:53 AM 66.0 °F - 63.0 °F 90% 29.92 in 5.0 mi WSW 4.6 mph - N/A   Scattered Clouds
8:01 AM 66.0 °F - 63.0 °F 90% 30.06 in 6.0 mi SSW 6.9 mph - N/A   Mostly Cloudy
8:53 AM 68.0 °F - 64.0 °F 87% 29.93 in 9.0 mi SSW 9.2 mph - N/A   Mostly Cloudy
9:53 AM 72.0 °F - 64.9 °F 78% 29.93 in 10.0 mi SW 12.7 mph - N/A   Overcast
10:53 AM 73.9 °F - 64.0 °F 71% 29.93 in 10.0 mi SW 13.8 mph 19.6 mph N/A   Overcast
11:30 AM 75.0 °F - 64.0 °F 69% 30.07 in 10.0 mi SW 12.7 mph - N/A   Overcast
11:37 AM 75.9 °F - 64.9 °F 69% 30.06 in 10.0 mi SW 9.2 mph - N/A   Overcast
11:53 AM 77.0 °F - 64.9 °F 66% 29.92 in 10.0 mi SW 9.2 mph - N/A   Mostly Cloudy
12:05 PM 77.0 °F - 64.9 °F 66% 30.07 in 10.0 mi SSW 11.5 mph - N/A   Mostly Cloudy
12:53 PM 81.0 °F 82.7 °F 64.9 °F 58% 29.91 in 10.0 mi South 9.2 mph - N/A   Scattered Clouds
1:53 PM 82.9 °F 83.3 °F 61.0 °F 47% 29.87 in 10.0 mi SSE 9.2 mph - N/A   Partly Cloudy
2:53 PM 84.9 °F 84.4 °F 59.0 °F 41% 29.84 in 10.0 mi South 13.8 mph 21.9 mph N/A   Partly Cloudy
3:53 PM 84.9 °F 84.2 °F 57.9 °F 40% 29.82 in 10.0 mi SE 11.5 mph 20.7 mph N/A   Scattered Clouds
4:43 PM 77.0 °F - 60.1 °F 56% 29.96 in 10.0 mi East 27.6 mph 32.2 mph N/A Thunderstorm Scattered Clouds
4:53 PM 78.1 °F - 60.1 °F 54% 29.81 in 10.0 mi ESE 23.0 mph 34.5 mph N/A Thunderstorm Mostly Cloudy
5:02 PM 77.0 °F - 60.1 °F 56% 29.95 in 10.0 mi East 25.3 mph 32.2 mph N/A   Mostly Cloudy
5:53 PM 75.9 °F - 64.9 °F 69% 29.82 in 10.0 mi ESE 23.0 mph 29.9 mph 0.00 in Rain , Thunderstorm Light Rain
6:05 PM 71.1 °F - 61.0 °F 70% 29.94 in 7.0 mi ESE 24.2 mph 35.7 mph 0.01 in Rain , Thunderstorm Thunderstorms and Rain
6:22 PM 73.0 °F - 64.0 °F 73% 29.94 in 10.0 mi ESE 24.2 mph 29.9 mph 0.03 in Rain , Thunderstorm Light Rain
6:48 PM 73.4 °F - 64.4 °F 73% 29.94 in 10.0 mi East 18.4 mph - 0.03 in   Clear
6:53 PM 73.9 °F - 63.0 °F 68% 29.81 in 10.0 mi East 21.9 mph - 0.03 in   Clear
7:26 PM 66.0 °F - 57.9 °F 75% 29.93 in 10.0 mi ENE 20.7 mph 32.2 mph 0.00 in Rain Light Rain
7:53 PM 63.0 °F - 57.0 °F 81% 29.78 in 10.0 mi ENE 24.2 mph 28.8 mph 0.00 in Rain , Thunderstorm Light Thunderstorms and Rain
8:16 PM 62.1 °F - 55.9 °F 80% 30.04 in 2.5 mi NW 38.0 mph 49.5 mph 0.02 in Rain , Thunderstorm Heavy Thunderstorms and Rain
8:20 PM 59.0 °F - 55.0 °F 87% 30.03 in 1.0 mi NNW 27.6 mph 49.5 mph 0.14 in Rain , Thunderstorm Heavy Thunderstorms and Rain
8:24 PM 57.9 °F - 55.9 °F 93% 30.02 in 0.8 mi North 27.6 mph 49.5 mph 0.37 in Rain , Thunderstorm Heavy Thunderstorms and Rain
8:32 PM 57.9 °F - 55.9 °F 93% 30.02 in 1.0 mi North 21.9 mph 31.1 mph 0.64 in Rain , Thunderstorm Heavy Thunderstorms and Rain
8:38 PM 57.9 °F - 55.9 °F 93% 30.01 in 2.0 mi North 19.6 mph 31.1 mph 0.71 in Rain , Thunderstorm Thunderstorms and Rain
8:53 PM 57.9 °F - 55.9 °F 93% 29.90 in 4.0 mi North 15.0 mph - 0.79 in Rain , Thunderstorm Thunderstorms and Rain
9:13 PM 59.0 °F - 55.9 °F 90% 29.99 in 9.0 mi NNE 9.2 mph - 0.04 in Rain Light Rain
9:53 PM 60.1 °F - 55.9 °F 86% 29.96 in 6.0 mi NW 6.9 mph - 0.08 in Rain Rain
10:53 PM 60.1 °F - 55.9 °F 86% 30.02 in 7.0 mi ESE 8.1 mph - 0.16 in Rain Rain
11:53 PM 60.1 °F - 55.9 °F 86% 29.91 in 10.0 mi ENE 25.3 mph 29.9 mph 0.16 in Rain Light Rain